Time,TemperatureF,DewpointF,PressureIn,WindDirection,WindDirectionDegrees,WindSpeedMPH,WindSpeedGustMPH,Humidity,HourlyPrecipIn,Conditions,Clouds,dailyrainin,SoftwareType,DateUTC
2013-05-30 00:01:00,62.2,61.9,30.00,WSW,248,1.0,4.0,99,0.27,,RA,1.18,VWS V13.01,2013-05-30 04:01:00,
2013-05-30 00:06:00,62.4,62.1,30.00,WSW,246,1.0,6.0,99,0.07,,RA,0.00,VWS V13.01,2013-05-30 04:06:00,
2013-05-30 00:11:00,62.6,62.3,30.01,SW,225,1.0,6.0,99,0.07,,RA,0.00,VWS V13.01,2013-05-30 04:11:00,
2013-05-30 00:17:00,62.7,62.4,30.00,SW,227,1.0,9.0,99,0.07,,RA,0.00,VWS V13.01,2013-05-30 04:17:00,
2013-05-30 00:22:00,62.8,62.5,30.00,SW,218,0.0,9.0,99,0.07,,RA,0.00,VWS V13.01,2013-05-30 04:22:00,
2013-05-30 00:27:00,63.0,62.7,30.00,SW,223,4.0,9.0,99,0.07,,RA,0.00,VWS V13.01,2013-05-30 04:27:00,
2013-05-30 00:32:00,63.1,62.8,30.00,SW,221,1.0,1.0,99,0.07,,RA,0.00,VWS V13.01,2013-05-30 04:32:00,
2013-05-30 00:37:00,63.1,62.8,30.00,SW,217,0.0,4.0,99,0.00,,RA,0.00,VWS V13.01,2013-05-30 04:37:00,
2013-05-30 00:42:00,63.2,62.9,30.00,SE,128,0.0,5.0,99,0.00,,RA,0.00,VWS V13.01,2013-05-30 04:42:00,
2013-05-30 00:47:00,63.2,62.9,30.01,West,279,0.0,10.0,99,0.00,,SCT110,0.00,VWS V13.01,2013-05-30 04:47:00,
2013-05-30 00:52:00,63.3,63.0,30.00,SSE,167,0.0,10.0,99,0.00,,SCT110,0.00,VWS V13.01,2013-05-30 04:52:00,
2013-05-30 00:57:00,63.3,63.0,30.00,SW,216,0.0,10.0,99,0.00,,SCT110,0.00,VWS V13.01,2013-05-30 04:57:00,
2013-05-30 01:02:00,63.3,63.0,30.00,SW,226,0.0,1.0,99,0.00,,SCT110,0.00,VWS V13.01,2013-05-30 05:02:00,
2013-05-30 01:07:00,63.2,62.9,30.00,SW,229,1.0,4.0,99,0.00,,SCT110,0.00,VWS V13.01,2013-05-30 05:07:00,
2013-05-30 01:12:00,63.3,63.0,30.00,SW,221,0.0,4.0,99,0.00,,SCT110,0.00,VWS V13.01,2013-05-30 05:12:00,
2013-05-30 01:17:00,63.3,63.0,30.00,SSW,197,0.0,4.0,99,0.00,,SCT110,0.00,VWS V13.01,2013-05-30 05:17:00,
2013-05-30 01:22:00,63.2,62.9,30.00,WSW,238,0.0,7.0,99,0.00,,SCT110,0.00,VWS V13.01,2013-05-30 05:22:00,
2013-05-30 01:27:00,63.1,62.8,29.99,SW,231,0.0,7.0,99,0.00,,SCT110,0.00,VWS V13.01,2013-05-30 05:27:00,
2013-05-30 01:32:00,63.1,62.8,29.99,SW,222,0.0,0.0,99,0.00,,SCT110,0.00,VWS V13.01,2013-05-30 05:32:00,
2013-05-30 01:37:00,63.0,62.7,29.99,SW,222,0.0,2.0,99,0.00,,SCT110,0.00,VWS V13.01,2013-05-30 05:37:00,
2013-05-30 01:42:00,63.0,62.7,29.99,SW,222,0.0,2.0,99,0.00,,SCT110,0.00,VWS V13.01,2013-05-30 05:42:00,
2013-05-30 01:47:00,63.0,62.7,29.99,SW,222,0.0,2.0,99,0.00,,CLR,0.00,VWS V13.01,2013-05-30 05:47:00,
2013-05-30 01:52:00,63.0,62.7,29.99,SW,236,0.0,4.0,99,0.00,,CLR,0.00,VWS V13.01,2013-05-30 05:52:00,
2013-05-30 01:57:00,62.9,62.6,29.99,SW,236,0.0,4.0,99,0.00,,CLR,0.00,VWS V13.01,2013-05-30 05:57:00,
2013-05-30 02:02:00,62.9,62.6,29.99,SW,236,0.0,0.0,99,0.00,,CLR,0.00,VWS V13.01,2013-05-30 06:02:00,
2013-05-30 02:07:00,62.8,62.5,30.00,SW,236,0.0,3.0,99,0.00,,CLR,0.00,VWS V13.01,2013-05-30 06:07:00,
2013-05-30 02:12:00,62.8,62.5,29.99,SW,221,0.0,4.0,99,0.00,,CLR,0.00,VWS V13.01,2013-05-30 06:12:00,
2013-05-30 02:17:00,62.8,62.5,29.99,SW,221,0.0,4.0,99,0.00,,CLR,0.00,VWS V13.01,2013-05-30 06:17:00,
2013-05-30 02:22:00,62.7,62.4,29.99,SW,221,0.0,4.0,99,0.00,,CLR,0.00,VWS V13.01,2013-05-30 06:22:00,
2013-05-30 02:27:00,62.7,62.4,29.99,SW,221,0.0,4.0,99,0.00,,CLR,0.00,VWS V13.01,2013-05-30 06:27:00,
2013-05-30 02:32:00,62.7,62.4,29.99,SW,221,0.0,1.0,99,0.00,,CLR,0.00,VWS V13.01,2013-05-30 06:32:00,
2013-05-30 02:37:00,62.7,62.4,29.99,SW,221,0.0,1.0,99,0.00,,CLR,0.00,VWS V13.01,2013-05-30 06:37:00,
2013-05-30 02:42:00,62.6,62.3,29.99,SW,221,0.0,1.0,99,0.00,,CLR,0.00,VWS V13.01,2013-05-30 06:42:00,
2013-05-30 02:47:00,62.6,62.3,29.99,SW,221,0.0,1.0,99,0.00,,CLR,0.00,VWS V13.01,2013-05-30 06:47:00,
2013-05-30 02:52:00,62.6,62.3,29.99,SW,221,0.0,1.0,99,0.00,,CLR,0.00,VWS V13.01,2013-05-30 06:52:00,
2013-05-30 02:58:00,62.5,62.2,29.99,SW,221,0.0,1.0,99,0.00,,CLR,0.00,VWS V13.01,2013-05-30 06:58:00,
2013-05-30 03:03:00,62.5,62.2,29.99,SW,221,0.0,0.0,99,0.00,,CLR,0.00,VWS V13.01,2013-05-30 07:03:00,
2013-05-30 03:08:00,62.5,62.2,29.99,SW,221,0.0,0.0,99,0.00,,CLR,0.00,VWS V13.01,2013-05-30 07:08:00,
2013-05-30 03:13:00,62.4,62.1,29.99,SW,221,0.0,1.0,99,0.00,,CLR,0.00,VWS V13.01,2013-05-30 07:13:00,
2013-05-30 03:18:00,62.4,62.1,30.00,SW,221,0.0,1.0,99,0.00,,CLR,0.00,VWS V13.01,2013-05-30 07:18:00,
2013-05-30 03:23:00,62.4,62.1,30.00,SW,221,0.0,1.0,99,0.00,,CLR,0.00,VWS V13.01,2013-05-30 07:23:00,
2013-05-30 03:28:00,62.4,62.1,30.00,SW,221,0.0,1.0,99,0.00,,CLR,0.00,VWS V13.01,2013-05-30 07:28:00,
2013-05-30 03:33:00,62.5,62.2,30.00,SW,221,0.0,0.0,99,0.00,,CLR,0.00,VWS V13.01,2013-05-30 07:33:00,
2013-05-30 03:38:00,62.5,62.2,30.00,SW,221,0.0,1.0,99,0.00,,CLR,0.00,VWS V13.01,2013-05-30 07:38:00,
2013-05-30 03:43:00,62.5,62.2,30.00,SW,221,0.0,1.0,99,0.00,,CLR,0.00,VWS V13.01,2013-05-30 07:43:00,
2013-05-30 03:48:00,62.5,62.2,30.00,SW,221,0.0,1.0,99,0.00,,CLR,0.00,VWS V13.01,2013-05-30 07:48:00,
2013-05-30 03:53:00,62.3,62.0,30.00,SW,221,0.0,1.0,99,0.00,,CLR,0.00,VWS V13.01,2013-05-30 07:53:00,
2013-05-30 03:58:00,62.2,61.9,30.00,SW,221,0.0,1.0,99,0.00,,CLR,0.00,VWS V13.01,2013-05-30 07:58:00,
2013-05-30 04:03:00,62.1,61.8,30.00,SW,221,0.0,0.0,99,0.00,,CLR,0.00,VWS V13.01,2013-05-30 08:03:00,
2013-05-30 04:08:00,62.0,61.7,30.00,SW,221,0.0,0.0,99,0.00,,CLR,0.00,VWS V13.01,2013-05-30 08:08:00,
2013-05-30 04:13:00,62.0,61.7,30.00,SW,221,0.0,0.0,99,0.00,,CLR,0.00,VWS V13.01,2013-05-30 08:13:00,
2013-05-30 04:18:00,61.9,61.6,30.00,SW,221,0.0,0.0,99,0.00,,CLR,0.00,VWS V13.01,2013-05-30 08:18:00,
2013-05-30 04:23:00,61.8,61.5,30.01,SW,221,0.0,0.0,99,0.00,,CLR,0.00,VWS V13.01,2013-05-30 08:23:00,
2013-05-30 04:28:00,61.8,61.5,30.01,SW,221,0.0,0.0,99,0.00,,CLR,0.00,VWS V13.01,2013-05-30 08:28:00,
2013-05-30 04:33:00,61.6,61.3,30.01,SW,221,0.0,0.0,99,0.00,,CLR,0.00,VWS V13.01,2013-05-30 08:33:00,
2013-05-30 04:38:00,61.5,61.2,30.01,SW,221,0.0,0.0,99,0.00,,CLR,0.00,VWS V13.01,2013-05-30 08:38:00,
2013-05-30 04:43:00,61.4,61.1,30.01,SW,221,0.0,0.0,99,0.00,,CLR,0.00,VWS V13.01,2013-05-30 08:43:00,
2013-05-30 04:48:00,61.3,61.0,30.01,SW,221,0.0,1.0,99,0.00,,CLR,0.00,VWS V13.01,2013-05-30 08:48:00,
2013-05-30 04:53:00,61.3,61.0,30.01,SW,221,0.0,1.0,99,0.00,,CLR,0.00,VWS V13.01,2013-05-30 08:53:00,
2013-05-30 04:58:00,61.3,61.0,30.01,SW,221,0.0,1.0,99,0.00,,CLR,0.00,VWS V13.01,2013-05-30 08:58:00,
2013-05-30 05:03:00,61.3,61.0,30.01,SW,221,0.0,1.0,99,0.00,,,0.00,VWS V13.01,2013-05-30 09:03:00,
2013-05-30 05:08:00,61.3,61.0,30.01,SW,221,0.0,2.0,99,0.00,,,0.00,VWS V13.01,2013-05-30 09:08:00,
2013-05-30 05:13:00,61.2,60.9,30.01,SW,221,0.0,2.0,99,0.00,,,0.00,VWS V13.01,2013-05-30 09:13:00,
2013-05-30 05:18:00,61.2,60.9,30.01,SW,221,0.0,3.0,99,0.00,,,0.00,VWS V13.01,2013-05-30 09:18:00,
2013-05-30 05:23:00,61.3,61.3,30.01,SW,221,0.0,3.0,100,0.00,,,0.00,VWS V13.01,2013-05-30 09:23:00,
2013-05-30 05:28:00,61.3,61.3,30.01,SW,221,0.0,3.0,100,0.00,,,0.00,VWS V13.01,2013-05-30 09:28:00,
2013-05-30 05:33:00,61.4,61.4,30.01,SW,221,0.0,1.0,100,0.00,,,0.00,VWS V13.01,2013-05-30 09:33:00,
2013-05-30 05:38:00,61.4,61.4,30.01,SW,221,0.0,1.0,100,0.00,,,0.00,VWS V13.01,2013-05-30 09:38:00,
2013-05-30 05:43:00,61.5,61.5,30.02,SW,221,0.0,1.0,100,0.00,,,0.00,VWS V13.01,2013-05-30 09:43:00,
2013-05-30 05:48:00,61.6,61.6,30.02,SW,221,0.0,1.0,100,0.00,,CLR,0.00,VWS V13.01,2013-05-30 09:48:00,
2013-05-30 05:54:00,61.7,61.7,30.02,SW,221,2.0,3.0,100,0.00,,CLR,0.00,VWS V13.01,2013-05-30 09:54:00,
2013-05-30 05:59:00,61.7,61.7,30.02,SW,221,0.0,3.0,100,0.00,,CLR,0.00,VWS V13.01,2013-05-30 09:59:00,
2013-05-30 06:04:00,61.7,61.7,30.02,SW,221,0.0,1.0,100,0.00,,CLR,0.00,VWS V13.01,2013-05-30 10:04:00,
2013-05-30 06:09:00,61.8,61.8,30.02,SW,221,0.0,1.0,100,0.00,,CLR,0.00,VWS V13.01,2013-05-30 10:09:00,
2013-05-30 06:14:00,61.8,61.8,30.03,SW,221,0.0,1.0,100,0.00,,CLR,0.00,VWS V13.01,2013-05-30 10:14:00,
2013-05-30 06:19:00,61.9,61.9,30.03,SW,221,0.0,1.0,100,0.00,,CLR,0.00,VWS V13.01,2013-05-30 10:19:00,
2013-05-30 06:24:00,62.1,62.1,30.03,SW,221,0.0,1.0,100,0.00,,CLR,0.00,VWS V13.01,2013-05-30 10:24:00,
2013-05-30 06:29:00,62.2,62.2,30.03,SW,221,0.0,1.0,100,0.00,,CLR,0.00,VWS V13.01,2013-05-30 10:29:00,
2013-05-30 06:34:00,62.5,62.5,30.03,SW,221,0.0,3.0,100,0.00,,CLR,0.00,VWS V13.01,2013-05-30 10:34:00,
2013-05-30 06:39:00,62.8,62.8,30.03,SW,221,0.0,4.0,100,0.00,,CLR,0.00,VWS V13.01,2013-05-30 10:39:00,
2013-05-30 06:44:00,62.9,62.9,30.03,SSW,212,0.0,4.0,100,0.00,,CLR,0.00,VWS V13.01,2013-05-30 10:44:00,
2013-05-30 06:49:00,63.0,63.0,30.03,SW,223,0.0,4.0,100,0.00,,CLR,0.00,VWS V13.01,2013-05-30 10:49:00,
2013-05-30 06:54:00,63.1,63.1,30.03,SW,223,0.0,4.0,100,0.00,,CLR,0.00,VWS V13.01,2013-05-30 10:54:00,
2013-05-30 06:59:00,63.2,63.2,30.03,SSW,212,0.0,5.0,100,0.00,,CLR,0.00,VWS V13.01,2013-05-30 10:59:00,
2013-05-30 07:04:00,63.4,63.4,30.03,SSW,212,0.0,0.0,100,0.00,,CLR,0.00,VWS V13.01,2013-05-30 11:04:00,
2013-05-30 07:09:00,63.6,63.6,30.03,SSW,212,0.0,1.0,100,0.00,,CLR,0.00,VWS V13.01,2013-05-30 11:09:00,
2013-05-30 07:14:00,63.8,63.8,30.03,SSW,212,0.0,2.0,100,0.00,,CLR,0.00,VWS V13.01,2013-05-30 11:14:00,
2013-05-30 07:19:00,64.0,64.0,30.03,SSW,212,0.0,2.0,100,0.00,,CLR,0.00,VWS V13.01,2013-05-30 11:19:00,
2013-05-30 07:24:00,64.1,64.1,30.03,SSW,212,0.0,2.0,100,0.00,,CLR,0.00,VWS V13.01,2013-05-30 11:24:00,
2013-05-30 07:29:00,64.4,64.4,30.03,SSW,213,0.0,4.0,100,0.00,,CLR,0.00,VWS V13.01,2013-05-30 11:29:00,
2013-05-30 07:34:00,64.5,64.5,30.03,SSW,213,0.0,3.0,100,0.00,,CLR,0.00,VWS V13.01,2013-05-30 11:34:00,
2013-05-30 07:39:00,64.8,64.8,30.03,SW,218,0.0,5.0,100,0.00,,CLR,0.00,VWS V13.01,2013-05-30 11:39:00,
2013-05-30 07:44:00,65.0,65.0,30.03,SW,221,0.0,5.0,100,0.00,,CLR,0.00,VWS V13.01,2013-05-30 11:44:00,
2013-05-30 07:49:00,65.2,65.2,30.03,SSW,209,0.0,5.0,100,0.00,,CLR,0.00,VWS V13.01,2013-05-30 11:49:00,
2013-05-30 07:54:00,65.5,65.5,30.04,SSW,211,0.0,5.0,100,0.00,,CLR,0.00,VWS V13.01,2013-05-30 11:54:00,
2013-05-30 07:59:00,65.9,65.9,30.03,WSW,240,0.0,5.0,100,0.00,,CLR,0.00,VWS V13.01,2013-05-30 11:59:00,
2013-05-30 08:04:00,66.1,66.1,30.03,SW,236,0.0,3.0,100,0.00,,CLR,0.00,VWS V13.01,2013-05-30 12:04:00,
2013-05-30 08:09:00,66.3,66.3,30.04,WSW,239,0.0,5.0,100,0.00,,CLR,0.00,VWS V13.01,2013-05-30 12:09:00,
2013-05-30 08:14:00,66.6,66.6,30.04,SW,216,0.0,6.0,100,0.00,,CLR,0.00,VWS V13.01,2013-05-30 12:14:00,
2013-05-30 08:19:00,66.8,66.8,30.04,East,91,2.0,6.0,100,0.00,,CLR,0.00,VWS V13.01,2013-05-30 12:19:00,
2013-05-30 08:25:00,67.0,67.0,30.05,SSW,202,4.0,6.0,100,0.00,,CLR,0.00,VWS V13.01,2013-05-30 12:25:00,
2013-05-30 08:30:00,67.3,67.3,30.05,SW,218,0.0,6.0,100,0.00,,CLR,0.00,VWS V13.01,2013-05-30 12:30:00,
2013-05-30 08:35:00,67.6,67.6,30.05,WSW,241,0.0,5.0,100,0.00,,CLR,0.00,VWS V13.01,2013-05-30 12:35:00,
2013-05-30 08:40:00,67.8,67.8,30.05,WSW,241,1.0,5.0,100,0.00,,CLR,0.00,VWS V13.01,2013-05-30 12:40:00,
2013-05-30 08:45:00,68.2,68.2,30.05,SW,221,0.0,5.0,100,0.00,,CLR,0.00,VWS V13.01,2013-05-30 12:45:00,
2013-05-30 08:50:00,68.7,68.7,30.05,SSW,205,0.0,5.0,100,0.00,,CLR,0.00,VWS V13.01,2013-05-30 12:50:00,
2013-05-30 08:55:00,69.4,69.4,30.05,SSW,205,0.0,5.0,100,0.00,,CLR,0.00,VWS V13.01,2013-05-30 12:55:00,
2013-05-30 09:00:00,70.1,70.1,30.05,SW,225,0.0,5.0,100,0.00,,CLR,0.00,VWS V13.01,2013-05-30 13:00:00,
2013-05-30 09:05:00,70.7,70.7,30.05,WSW,241,0.0,4.0,100,0.00,,CLR,0.00,VWS V13.01,2013-05-30 13:05:00,
2013-05-30 09:10:00,71.2,71.2,30.05,SSW,200,2.0,7.0,100,0.00,,CLR,0.00,VWS V13.01,2013-05-30 13:10:00,
2013-05-30 09:15:00,71.9,71.6,30.05,SW,226,0.0,7.0,99,0.00,,CLR,0.00,VWS V13.01,2013-05-30 13:15:00,
2013-05-30 09:20:00,72.6,71.7,30.05,SW,229,1.0,7.0,97,0.00,,CLR,0.00,VWS V13.01,2013-05-30 13:20:00,
2013-05-30 09:25:00,73.3,71.5,30.05,SSW,210,0.0,7.0,94,0.00,,CLR,0.00,VWS V13.01,2013-05-30 13:25:00,
2013-05-30 09:30:00,73.9,70.8,30.05,SW,223,1.0,9.0,90,0.00,,CLR,0.00,VWS V13.01,2013-05-30 13:30:00,
2013-05-30 09:35:00,74.5,71.7,30.05,ESE,113,1.0,3.0,91,0.00,,CLR,0.00,VWS V13.01,2013-05-30 13:35:00,
2013-05-30 09:40:00,75.3,71.2,30.05,South,180,0.0,7.0,87,0.00,,CLR,0.00,VWS V13.01,2013-05-30 13:40:00,
2013-05-30 09:45:00,76.0,72.5,30.05,North,5,0.0,7.0,89,0.00,,CLR,0.00,VWS V13.01,2013-05-30 13:45:00,
2013-05-30 09:50:00,76.9,72.1,30.05,SSE,157,0.0,7.0,85,0.00,,CLR,0.00,VWS V13.01,2013-05-30 13:50:00,
2013-05-30 09:55:00,77.7,71.4,30.05,NW,322,0.0,7.0,81,0.00,,CLR,0.00,VWS V13.01,2013-05-30 13:55:00,
2013-05-30 10:00:00,78.4,72.4,30.04,NNW,340,4.0,7.0,82,0.00,,CLR,0.00,VWS V13.01,2013-05-30 14:00:00,
2013-05-30 10:05:00,78.9,71.5,30.04,WNW,291,0.0,6.0,78,0.00,,CLR,0.00,VWS V13.01,2013-05-30 14:05:00,
2013-05-30 10:10:00,79.4,71.6,30.04,NNE,18,0.0,7.0,77,0.00,,CLR,0.00,VWS V13.01,2013-05-30 14:10:00,
2013-05-30 10:15:00,79.7,71.1,30.04,North,349,0.0,7.0,75,0.00,,CLR,0.00,VWS V13.01,2013-05-30 14:15:00,
2013-05-30 10:20:00,80.2,71.2,30.04,WNW,292,1.0,10.0,74,0.00,,CLR,0.00,VWS V13.01,2013-05-30 14:20:00,
2013-05-30 10:26:00,80.7,70.0,30.04,North,355,4.0,10.0,70,0.00,,CLR,0.00,VWS V13.01,2013-05-30 14:26:00,
2013-05-30 10:31:00,81.2,72.1,30.04,South,175,1.0,10.0,74,0.00,,CLR,0.00,VWS V13.01,2013-05-30 14:31:00,
2013-05-30 10:36:00,81.6,71.3,30.04,NNW,347,0.0,5.0,71,0.00,,CLR,0.00,VWS V13.01,2013-05-30 14:36:00,
2013-05-30 10:41:00,82.1,72.2,30.04,NNW,347,0.0,5.0,72,0.00,,CLR,0.00,VWS V13.01,2013-05-30 14:41:00,
2013-05-30 10:46:00,82.7,71.1,30.04,NW,319,4.0,5.0,68,0.00,,CLR,0.00,VWS V13.01,2013-05-30 14:46:00,
2013-05-30 10:51:00,83.0,71.8,30.04,North,9,2.0,5.0,69,0.00,,CLR,0.00,VWS V13.01,2013-05-30 14:51:00,
2013-05-30 10:56:00,83.2,71.1,30.04,NW,323,0.0,5.0,67,0.00,,CLR,0.00,VWS V13.01,2013-05-30 14:56:00,
2013-05-30 11:01:00,83.5,70.9,30.04,NNW,338,3.0,5.0,66,0.00,,CLR,0.00,VWS V13.01,2013-05-30 15:01:00,
2013-05-30 11:06:00,83.6,70.1,30.04,NNE,33,2.0,11.0,64,0.00,,CLR,0.00,VWS V13.01,2013-05-30 15:06:00,
2013-05-30 11:11:00,83.8,68.9,30.04,NW,324,1.0,11.0,61,0.00,,CLR,0.00,VWS V13.01,2013-05-30 15:11:00,
2013-05-30 11:16:00,84.0,69.6,30.04,WSW,256,3.0,11.0,62,0.00,,CLR,0.00,VWS V13.01,2013-05-30 15:16:00,
2013-05-30 11:21:00,83.9,71.3,30.04,NW,325,0.0,11.0,66,0.00,,CLR,0.00,VWS V13.01,2013-05-30 15:21:00,
2013-05-30 11:26:00,84.1,69.7,30.04,West,275,2.0,11.0,62,0.00,,CLR,0.00,VWS V13.01,2013-05-30 15:26:00,
2013-05-30 11:31:00,84.3,70.3,30.04,WNW,292,1.0,11.0,63,0.00,,CLR,0.00,VWS V13.01,2013-05-30 15:31:00,
2013-05-30 11:36:00,84.1,68.2,30.04,NNW,338,1.0,5.0,59,0.00,,CLR,0.00,VWS V13.01,2013-05-30 15:36:00,
2013-05-30 11:41:00,83.7,69.3,30.04,East,84,0.0,7.0,62,0.00,,CLR,0.00,VWS V13.01,2013-05-30 15:41:00,
2013-05-30 11:46:00,83.6,67.8,30.04,North,5,0.0,7.0,59,0.00,,CLR,0.00,VWS V13.01,2013-05-30 15:46:00,
2013-05-30 11:51:00,84.0,70.5,30.03,WSW,240,0.0,8.0,64,0.00,,CLR,0.00,VWS V13.01,2013-05-30 15:51:00,
2013-05-30 11:56:00,84.3,69.9,30.03,West,264,2.0,8.0,62,0.00,,CLR,0.00,VWS V13.01,2013-05-30 15:56:00,
2013-05-30 12:01:00,84.3,68.9,30.03,NW,321,0.0,2.0,60,0.00,,CLR,0.00,VWS V13.01,2013-05-30 16:01:00,
2013-05-30 12:06:00,84.7,68.3,30.03,NW,315,1.0,7.0,58,0.00,,CLR,0.00,VWS V13.01,2013-05-30 16:06:00,
2013-05-30 12:12:00,85.1,68.7,30.04,NNE,26,4.0,9.0,58,0.00,,CLR,0.00,VWS V13.01,2013-05-30 16:12:00,
2013-05-30 12:17:00,85.4,69.4,30.03,NNE,14,6.0,9.0,59,0.00,,CLR,0.00,VWS V13.01,2013-05-30 16:17:00,
2013-05-30 12:22:00,85.6,69.6,30.03,NNW,327,0.0,9.0,59,0.00,,CLR,0.00,VWS V13.01,2013-05-30 16:22:00,
2013-05-30 12:27:00,85.8,69.8,30.03,WSW,254,1.0,9.0,59,0.00,,CLR,0.00,VWS V13.01,2013-05-30 16:27:00,
2013-05-30 12:32:00,86.3,68.2,30.03,North,351,2.0,5.0,55,0.00,,CLR,0.00,VWS V13.01,2013-05-30 16:32:00,
2013-05-30 12:37:00,86.6,68.5,30.03,NE,51,4.0,5.0,55,0.00,,CLR,0.00,VWS V13.01,2013-05-30 16:37:00,
2013-05-30 12:42:00,86.6,69.6,30.03,NW,319,2.0,6.0,57,0.00,,CLR,0.00,VWS V13.01,2013-05-30 16:42:00,
2013-05-30 12:47:00,86.6,70.1,30.03,NW,319,1.0,6.0,58,0.00,,CLR,0.00,VWS V13.01,2013-05-30 16:47:00,
2013-05-30 12:52:00,86.3,67.7,30.03,NNW,348,1.0,6.0,54,0.00,,CLR,0.00,VWS V13.01,2013-05-30 16:52:00,
2013-05-30 12:57:00,86.2,67.6,30.03,NNE,23,0.0,6.0,54,0.00,,CLR,0.00,VWS V13.01,2013-05-30 16:57:00,
2013-05-30 13:02:00,86.0,68.5,30.02,North,5,0.0,3.0,56,0.00,,CLR,0.00,VWS V13.01,2013-05-30 17:02:00,
2013-05-30 13:07:00,86.1,68.6,30.02,West,277,5.0,5.0,56,0.00,,CLR,0.00,VWS V13.01,2013-05-30 17:07:00,
2013-05-30 13:12:00,86.3,69.3,30.02,NW,321,3.0,6.0,57,0.00,,CLR,0.00,VWS V13.01,2013-05-30 17:12:00,
2013-05-30 13:17:00,86.1,68.1,30.02,WNW,291,5.0,7.0,55,0.00,,CLR,0.00,VWS V13.01,2013-05-30 17:17:00,
2013-05-30 13:22:00,85.9,68.9,30.02,WNW,285,0.0,7.0,57,0.00,,CLR,0.00,VWS V13.01,2013-05-30 17:22:00,
2013-05-30 13:27:00,86.0,70.5,30.02,WNW,297,3.0,7.0,60,0.00,,CLR,0.00,VWS V13.01,2013-05-30 17:27:00,
2013-05-30 13:32:00,86.3,68.8,30.01,NNW,340,1.0,9.0,56,0.00,,CLR,0.00,VWS V13.01,2013-05-30 17:32:00,
2013-05-30 13:37:00,86.5,67.9,30.01,NW,324,0.0,9.0,54,0.00,,CLR,0.00,VWS V13.01,2013-05-30 17:37:00,
2013-05-30 13:42:00,86.8,69.8,30.01,South,173,2.0,9.0,57,0.00,,CLR,0.00,VWS V13.01,2013-05-30 17:42:00,
2013-05-30 13:47:00,86.6,70.6,30.01,SW,221,0.0,9.0,59,0.00,,SCT055,0.00,VWS V13.01,2013-05-30 17:47:00,
2013-05-30 13:52:00,86.6,68.0,30.01,SW,236,1.0,9.0,54,0.00,,SCT055,0.00,VWS V13.01,2013-05-30 17:52:00,
2013-05-30 13:57:00,86.4,69.9,30.01,NW,326,3.0,9.0,58,0.00,,SCT055,0.00,VWS V13.01,2013-05-30 17:57:00,
2013-05-30 14:02:00,86.1,69.6,30.01,NNE,13,1.0,3.0,58,0.00,,SCT055,0.00,VWS V13.01,2013-05-30 18:02:00,
2013-05-30 14:07:00,86.0,69.5,30.01,WNW,287,2.0,7.0,58,0.00,,SCT055,0.00,VWS V13.01,2013-05-30 18:07:00,
2013-05-30 14:12:00,86.2,69.2,30.00,West,269,0.0,7.0,57,0.00,,SCT055,0.00,VWS V13.01,2013-05-30 18:12:00,
2013-05-30 14:17:00,86.5,69.5,30.00,West,270,1.0,11.0,57,0.00,,SCT055,0.00,VWS V13.01,2013-05-30 18:17:00,
2013-05-30 14:22:00,86.7,68.6,30.00,NNW,329,3.0,11.0,55,0.00,,SCT055,0.00,VWS V13.01,2013-05-30 18:22:00,
2013-05-30 14:27:00,87.1,70.0,30.00,East,100,1.0,14.0,57,0.00,,SCT055,0.00,VWS V13.01,2013-05-30 18:27:00,
2013-05-30 14:33:00,87.1,69.5,30.00,West,272,1.0,6.0,56,0.00,,SCT055,0.00,VWS V13.01,2013-05-30 18:33:00,
2013-05-30 14:38:00,86.6,68.0,30.00,WSW,246,1.0,10.0,54,0.00,,SCT055,0.00,VWS V13.01,2013-05-30 18:38:00,
2013-05-30 14:43:00,86.1,68.6,30.00,North,9,3.0,10.0,56,0.00,,SCT055,0.00,VWS V13.01,2013-05-30 18:43:00,
2013-05-30 14:48:00,86.6,68.0,30.00,NNW,333,1.0,10.0,54,0.00,,FEW055,0.00,VWS V13.01,2013-05-30 18:48:00,
2013-05-30 14:53:00,87.2,69.6,30.00,NNE,25,2.0,10.0,56,0.00,,FEW055,0.00,VWS V13.01,2013-05-30 18:53:00,
2013-05-30 14:58:00,87.9,72.3,30.00,West,272,0.0,10.0,60,0.00,,FEW055,0.00,VWS V13.01,2013-05-30 18:58:00,
2013-05-30 15:03:00,88.6,68.2,30.00,WSW,251,1.0,14.0,51,0.00,,FEW055,0.00,VWS V13.01,2013-05-30 19:03:00,
2013-05-30 15:08:00,88.6,68.2,30.00,WSW,246,2.0,14.0,51,0.00,,FEW055,0.00,VWS V13.01,2013-05-30 19:08:00,
2013-05-30 15:13:00,88.4,67.4,30.00,SSW,198,1.0,14.0,50,0.00,,FEW055,0.00,VWS V13.01,2013-05-30 19:13:00,
2013-05-30 15:18:00,87.9,68.7,30.00,North,9,0.0,14.0,53,0.00,,FEW055,0.00,VWS V13.01,2013-05-30 19:18:00,
2013-05-30 15:23:00,87.8,68.6,29.99,WSW,250,1.0,14.0,53,0.00,,FEW055,0.00,VWS V13.01,2013-05-30 19:23:00,
2013-05-30 15:28:00,88.1,68.3,29.99,NNW,341,1.0,14.0,52,0.00,,FEW055,0.00,VWS V13.01,2013-05-30 19:28:00,
2013-05-30 15:33:00,88.1,68.8,29.99,North,355,2.0,2.0,53,0.00,,FEW055,0.00,VWS V13.01,2013-05-30 19:33:00,
2013-05-30 15:38:00,88.1,67.7,29.99,NNW,344,0.0,6.0,51,0.00,,FEW055,0.00,VWS V13.01,2013-05-30 19:38:00,
2013-05-30 15:43:00,88.2,68.4,29.99,NW,319,0.0,6.0,52,0.00,,FEW055,0.00,VWS V13.01,2013-05-30 19:43:00,
2013-05-30 15:48:00,88.1,68.3,29.99,NNW,328,0.0,6.0,52,0.00,,SCT055,0.00,VWS V13.01,2013-05-30 19:48:00,
2013-05-30 15:53:00,88.6,70.4,29.99,NNW,327,1.0,6.0,55,0.00,,SCT055,0.00,VWS V13.01,2013-05-30 19:53:00,
2013-05-30 15:58:00,89.3,69.4,29.99,NNW,329,1.0,7.0,52,0.00,,SCT055,0.00,VWS V13.01,2013-05-30 19:58:00,
2013-05-30 16:03:00,89.5,69.0,29.98,SW,221,4.0,5.0,51,0.00,,SCT055,0.00,VWS V13.01,2013-05-30 20:03:00,
2013-05-30 16:08:00,89.5,68.4,29.98,NNE,22,4.0,9.0,50,0.00,,SCT055,0.00,VWS V13.01,2013-05-30 20:08:00,
2013-05-30 16:13:00,89.3,68.8,29.98,North,5,4.0,10.0,51,0.00,,SCT055,0.00,VWS V13.01,2013-05-30 20:13:00,
2013-05-30 16:18:00,89.0,67.4,29.98,North,355,0.0,14.0,49,0.00,,SCT055,0.00,VWS V13.01,2013-05-30 20:18:00,
2013-05-30 16:23:00,88.3,67.9,29.98,WSW,249,2.0,14.0,51,0.00,,SCT055,0.00,VWS V13.01,2013-05-30 20:23:00,
2013-05-30 16:29:00,87.8,70.2,29.98,West,270,2.0,14.0,56,0.00,,SCT055,0.00,VWS V13.01,2013-05-30 20:29:00,
2013-05-30 16:34:00,87.3,69.7,29.98,SE,126,3.0,8.0,56,0.00,,SCT055,0.00,VWS V13.01,2013-05-30 20:34:00,
2013-05-30 16:39:00,86.9,70.4,29.98,SW,227,1.0,8.0,58,0.00,,SCT055,0.00,VWS V13.01,2013-05-30 20:39:00,
2013-05-30 16:44:00,86.6,68.0,29.98,East,87,1.0,8.0,54,0.00,,SCT055,0.00,VWS V13.01,2013-05-30 20:44:00,
2013-05-30 16:49:00,86.7,69.1,29.98,WSW,253,0.0,8.0,56,0.00,,FEW055,0.00,VWS V13.01,2013-05-30 20:49:00,
2013-05-30 16:54:00,86.7,68.6,29.98,SW,228,1.0,8.0,55,0.00,,FEW055,0.00,VWS V13.01,2013-05-30 20:54:00,
2013-05-30 16:59:00,86.6,67.4,29.98,NW,309,0.0,8.0,53,0.00,,FEW055,0.00,VWS V13.01,2013-05-30 20:59:00,
2013-05-30 17:04:00,86.2,67.6,29.98,NNW,346,0.0,4.0,54,0.00,,FEW055,0.00,VWS V13.01,2013-05-30 21:04:00,
2013-05-30 17:09:00,85.8,68.8,29.98,SSW,202,0.0,5.0,57,0.00,,FEW055,0.00,VWS V13.01,2013-05-30 21:09:00,
2013-05-30 17:14:00,85.5,68.5,29.97,South,173,0.0,5.0,57,0.00,,FEW055,0.00,VWS V13.01,2013-05-30 21:14:00,
2013-05-30 17:19:00,85.3,69.4,29.97,WNW,298,0.0,9.0,59,0.00,,FEW055,0.00,VWS V13.01,2013-05-30 21:19:00,
2013-05-30 17:24:00,85.3,68.9,29.97,South,188,5.0,9.0,58,0.00,,FEW055,0.00,VWS V13.01,2013-05-30 21:24:00,
2013-05-30 17:29:00,85.3,68.3,29.97,NW,311,0.0,9.0,57,0.00,,FEW055,0.00,VWS V13.01,2013-05-30 21:29:00,
2013-05-30 17:34:00,85.4,67.9,29.97,North,9,0.0,9.0,56,0.00,,FEW055,0.00,VWS V13.01,2013-05-30 21:34:00,
2013-05-30 17:39:00,85.5,67.5,29.97,WSW,245,0.0,9.0,55,0.00,,FEW055,0.00,VWS V13.01,2013-05-30 21:39:00,
2013-05-30 17:44:00,85.4,66.9,29.97,NNW,348,0.0,9.0,54,0.00,,FEW055,0.00,VWS V13.01,2013-05-30 21:44:00,
2013-05-30 17:49:00,85.4,66.3,29.97,North,355,0.0,9.0,53,0.00,,FEW060,0.00,VWS V13.01,2013-05-30 21:49:00,
2013-05-30 17:54:00,85.5,67.5,29.97,WNW,282,0.0,9.0,55,0.00,,FEW060,0.00,VWS V13.01,2013-05-30 21:54:00,
2013-05-30 17:59:00,85.4,67.9,29.97,East,89,1.0,11.0,56,0.00,,FEW060,0.00,VWS V13.01,2013-05-30 21:59:00,
2013-05-30 18:04:00,85.2,67.8,29.97,West,275,1.0,6.0,56,0.00,,FEW060,0.00,VWS V13.01,2013-05-30 22:04:00,
2013-05-30 18:10:00,85.1,66.6,29.97,North,350,2.0,6.0,54,0.00,,FEW060,0.00,VWS V13.01,2013-05-30 22:10:00,
2013-05-30 18:15:00,85.0,67.0,29.97,WNW,302,0.0,6.0,55,0.00,,FEW060,0.00,VWS V13.01,2013-05-30 22:15:00,
2013-05-30 18:20:00,84.8,67.9,29.97,NNW,331,0.0,6.0,57,0.00,,FEW060,0.00,VWS V13.01,2013-05-30 22:20:00,
2013-05-30 18:25:00,84.6,67.2,29.97,NNW,331,0.0,6.0,56,0.00,,FEW060,0.00,VWS V13.01,2013-05-30 22:25:00,
2013-05-30 18:30:00,84.4,67.5,29.97,North,5,0.0,6.0,57,0.00,,FEW060,0.00,VWS V13.01,2013-05-30 22:30:00,
2013-05-30 18:35:00,84.2,65.8,29.97,NW,314,0.0,4.0,54,0.00,,FEW060,0.00,VWS V13.01,2013-05-30 22:35:00,
2013-05-30 18:40:00,84.0,66.1,29.98,NNW,343,0.0,5.0,55,0.00,,FEW060,0.00,VWS V13.01,2013-05-30 22:40:00,
2013-05-30 18:45:00,83.8,65.9,29.98,NNW,335,0.0,5.0,55,0.00,,SCT250,0.00,VWS V13.01,2013-05-30 22:45:00,
2013-05-30 18:50:00,83.7,66.3,29.98,North,5,0.0,5.0,56,0.00,,SCT250,0.00,VWS V13.01,2013-05-30 22:50:00,
2013-05-30 18:55:00,83.4,66.6,29.98,North,5,0.0,5.0,57,0.00,,SCT250,0.00,VWS V13.01,2013-05-30 22:55:00,
2013-05-30 19:00:00,83.2,66.4,29.98,North,5,0.0,5.0,57,0.00,,SCT250,0.00,VWS V13.01,2013-05-30 23:00:00,
2013-05-30 19:05:00,82.9,66.6,29.98,North,5,0.0,0.0,58,0.00,,SCT250,0.00,VWS V13.01,2013-05-30 23:05:00,
2013-05-30 19:10:00,82.6,67.8,29.98,North,355,0.0,3.0,61,0.00,,SCT250,0.00,VWS V13.01,2013-05-30 23:10:00,
2013-05-30 19:15:00,82.2,67.9,29.98,North,355,0.0,3.0,62,0.00,,SCT250,0.00,VWS V13.01,2013-05-30 23:15:00,
2013-05-30 19:20:00,81.6,67.8,29.98,North,355,0.0,3.0,63,0.00,,SCT250,0.00,VWS V13.01,2013-05-30 23:20:00,
2013-05-30 19:25:00,81.1,67.3,29.98,North,355,0.0,3.0,63,0.00,,SCT250,0.00,VWS V13.01,2013-05-30 23:25:00,
2013-05-30 19:30:00,80.7,67.8,29.98,North,355,0.0,3.0,65,0.00,,SCT250,0.00,VWS V13.01,2013-05-30 23:30:00,
2013-05-30 19:35:00,80.2,67.8,29.98,North,355,0.0,0.0,66,0.00,,SCT250,0.00,VWS V13.01,2013-05-30 23:35:00,
2013-05-30 19:40:00,79.8,67.4,29.98,North,355,0.0,0.0,66,0.00,,SCT250,0.00,VWS V13.01,2013-05-30 23:40:00,
2013-05-30 19:46:00,79.4,67.5,29.98,North,355,0.0,0.0,67,0.00,,CLR,0.00,VWS V13.01,2013-05-30 23:46:00,
2013-05-30 19:51:00,79.0,66.7,29.98,North,355,0.0,0.0,66,0.00,,CLR,0.00,VWS V13.01,2013-05-30 23:51:00,
2013-05-30 19:56:00,78.6,67.2,29.98,North,355,0.0,0.0,68,0.00,,CLR,0.00,VWS V13.01,2013-05-30 23:56:00,
2013-05-30 20:01:00,78.3,66.9,29.98,North,355,0.0,0.0,68,0.00,,CLR,0.00,VWS V13.01,2013-05-31 00:01:00,
2013-05-30 20:06:00,77.9,66.9,29.98,North,355,0.0,0.0,69,0.00,,CLR,0.00,VWS V13.01,2013-05-31 00:06:00,
2013-05-30 20:11:00,77.7,67.6,29.98,North,355,0.0,0.0,71,0.00,,CLR,0.00,VWS V13.01,2013-05-31 00:11:00,
2013-05-30 20:16:00,77.4,68.1,29.98,North,355,0.0,0.0,73,0.00,,CLR,0.00,VWS V13.01,2013-05-31 00:16:00,
2013-05-30 20:21:00,77.1,67.8,29.98,North,355,0.0,0.0,73,0.00,,CLR,0.00,VWS V13.01,2013-05-31 00:21:00,
2013-05-30 20:26:00,76.8,67.5,29.98,North,355,0.0,0.0,73,0.00,,CLR,0.00,VWS V13.01,2013-05-31 00:26:00,
2013-05-30 20:31:00,76.4,67.9,29.98,North,355,0.0,0.0,75,0.00,,CLR,0.00,VWS V13.01,2013-05-31 00:31:00,
2013-05-30 20:36:00,76.0,68.3,29.99,North,355,0.0,0.0,77,0.00,,CLR,0.00,VWS V13.01,2013-05-31 00:36:00,
2013-05-30 20:41:00,75.3,68.0,29.99,North,355,0.0,0.0,78,0.00,,CLR,0.00,VWS V13.01,2013-05-31 00:41:00,
2013-05-30 20:46:00,74.7,67.8,29.99,North,355,0.0,0.0,79,0.00,,CLR,0.00,VWS V13.01,2013-05-31 00:46:00,
2013-05-30 20:51:00,74.3,67.4,29.99,North,355,0.0,0.0,79,0.00,,CLR,0.00,VWS V13.01,2013-05-31 00:51:00,
2013-05-30 20:56:00,73.9,67.7,29.99,North,355,0.0,0.0,81,0.00,,CLR,0.00,VWS V13.01,2013-05-31 00:56:00,
2013-05-30 21:01:00,73.6,68.1,30.00,North,355,0.0,0.0,83,0.00,,CLR,0.00,VWS V13.01,2013-05-31 01:01:00,
2013-05-30 21:06:00,73.3,67.8,30.00,North,355,0.0,0.0,83,0.00,,CLR,0.00,VWS V13.01,2013-05-31 01:06:00,
2013-05-30 21:11:00,73.0,67.9,30.00,North,355,0.0,0.0,84,0.00,,CLR,0.00,VWS V13.01,2013-05-31 01:11:00,
2013-05-30 21:16:00,72.8,68.0,30.00,North,355,0.0,0.0,85,0.00,,CLR,0.00,VWS V13.01,2013-05-31 01:16:00,
2013-05-30 21:21:00,72.6,67.8,30.00,North,355,0.0,0.0,85,0.00,,CLR,0.00,VWS V13.01,2013-05-31 01:21:00,
2013-05-30 21:26:00,72.4,68.0,30.00,North,355,0.0,0.0,86,0.00,,CLR,0.00,VWS V13.01,2013-05-31 01:26:00,
2013-05-30 21:31:00,72.1,67.7,30.00,North,355,0.0,0.0,86,0.00,,CLR,0.00,VWS V13.01,2013-05-31 01:31:00,
2013-05-30 21:36:00,71.9,67.8,30.00,North,355,0.0,0.0,87,0.00,,CLR,0.00,VWS V13.01,2013-05-31 01:36:00,
2013-05-30 21:41:00,71.7,67.6,30.00,North,355,0.0,0.0,87,0.00,,CLR,0.00,VWS V13.01,2013-05-31 01:41:00,
2013-05-30 21:46:00,71.5,67.8,30.01,North,355,0.0,0.0,88,0.00,,CLR,0.00,VWS V13.01,2013-05-31 01:46:00,
2013-05-30 21:51:00,71.1,67.7,30.00,North,355,0.0,0.0,89,0.00,,CLR,0.00,VWS V13.01,2013-05-31 01:51:00,
2013-05-30 21:56:00,70.6,67.2,30.00,North,355,0.0,0.0,89,0.00,,CLR,0.00,VWS V13.01,2013-05-31 01:56:00,
2013-05-30 22:02:00,70.2,66.8,30.01,North,355,0.0,0.0,89,0.00,,CLR,0.00,VWS V13.01,2013-05-31 02:02:00,
2013-05-30 22:07:00,70.0,66.9,30.01,North,355,0.0,0.0,90,0.00,,CLR,0.00,VWS V13.01,2013-05-31 02:07:00,
2013-05-30 22:12:00,69.9,67.2,30.01,North,355,0.0,0.0,91,0.00,,CLR,0.00,VWS V13.01,2013-05-31 02:12:00,
2013-05-30 22:17:00,69.9,67.2,30.01,North,355,0.0,0.0,91,0.00,,CLR,0.00,VWS V13.01,2013-05-31 02:17:00,
2013-05-30 22:22:00,69.8,67.1,30.01,North,355,0.0,0.0,91,0.00,,CLR,0.00,VWS V13.01,2013-05-31 02:22:00,
2013-05-30 22:27:00,69.7,67.0,30.01,North,355,0.0,0.0,91,0.00,,CLR,0.00,VWS V13.01,2013-05-31 02:27:00,
2013-05-30 22:32:00,69.5,67.1,30.01,North,355,0.0,0.0,92,0.00,,CLR,0.00,VWS V13.01,2013-05-31 02:32:00,
2013-05-30 22:37:00,69.4,67.0,30.01,North,355,0.0,0.0,92,0.00,,CLR,0.00,VWS V13.01,2013-05-31 02:37:00,
2013-05-30 22:42:00,69.2,66.8,30.01,North,355,0.0,0.0,92,0.00,,CLR,0.00,VWS V13.01,2013-05-31 02:42:00,
2013-05-30 22:47:00,69.1,66.7,30.01,North,355,0.0,0.0,92,0.00,,CLR,0.00,VWS V13.01,2013-05-31 02:47:00,
2013-05-30 22:52:00,69.0,66.9,30.01,North,355,0.0,0.0,93,0.00,,CLR,0.00,VWS V13.01,2013-05-31 02:52:00,
2013-05-30 22:57:00,68.9,66.8,30.01,North,355,0.0,0.0,93,0.00,,CLR,0.00,VWS V13.01,2013-05-31 02:57:00,
2013-05-30 23:02:00,68.8,66.7,30.01,North,355,0.0,0.0,93,0.00,,CLR,0.00,VWS V13.01,2013-05-31 03:02:00,
2013-05-30 23:07:00,68.7,66.6,30.01,North,355,0.0,0.0,93,0.00,,CLR,0.00,VWS V13.01,2013-05-31 03:07:00,
2013-05-30 23:12:00,68.6,66.8,30.01,North,355,0.0,0.0,94,0.00,,CLR,0.00,VWS V13.01,2013-05-31 03:12:00,
2013-05-30 23:17:00,68.5,66.7,30.01,North,355,0.0,0.0,94,0.00,,CLR,0.00,VWS V13.01,2013-05-31 03:17:00,
2013-05-30 23:22:00,68.4,66.6,30.01,North,355,0.0,0.0,94,0.00,,CLR,0.00,VWS V13.01,2013-05-31 03:22:00,
2013-05-30 23:27:00,68.3,66.5,30.01,North,355,0.0,0.0,94,0.00,,CLR,0.00,VWS V13.01,2013-05-31 03:27:00,
2013-05-30 23:32:00,68.1,66.3,30.01,North,355,0.0,0.0,94,0.00,,CLR,0.00,VWS V13.01,2013-05-31 03:32:00,
2013-05-30 23:37:00,68.0,66.2,30.01,North,355,0.0,0.0,94,0.00,,CLR,0.00,VWS V13.01,2013-05-31 03:37:00,
2013-05-30 23:42:00,67.8,66.0,30.01,North,355,0.0,0.0,94,0.00,,CLR,0.00,VWS V13.01,2013-05-31 03:42:00,
2013-05-30 23:47:00,67.7,66.2,30.01,North,355,0.0,0.0,95,0.00,,CLR,0.00,VWS V13.01,2013-05-31 03:47:00,
2013-05-30 23:52:00,67.5,66.0,30.01,North,355,0.0,0.0,95,0.00,,CLR,0.00,VWS V13.01,2013-05-31 03:52:00,
2013-05-30 23:57:00,67.3,65.8,30.01,North,355,0.0,0.0,95,0.00,,CLR,0.00,VWS V13.01,2013-05-31 03:57:00,